Stündliche Wetter Holyaky

Heute, 15 Juni, Dienstag

Zeit Temperatur Niederschläge Wind Luftdruck Luftfeuchtigkeit
00:00 +17°C° 0.2 mm 2 m/S 744 mmHg 92%
01:00 +16°C° 0.2 mm 2 m/S 744 mmHg 93%
02:00 +16°C° 0.2 mm 2 m/S 744 mmHg 93%
03:00 +16°C° 0 mm 2 m/S 744 mmHg 93%
04:00 +16°C° 0 mm 2 m/S 744 mmHg 93%
05:00 +16°C° 0 mm 2 m/S 745 mmHg 93%
06:00 +18°C° 0 mm 2 m/S 745 mmHg 89%
07:00 +20°C° 0 mm 3 m/S 745 mmHg 84%
08:00 +21°C° 0 mm 3 m/S 745 mmHg 80%
09:00 +22°C° 0.3 mm 3 m/S 745 mmHg 75%
10:00 +23°C° 0.3 mm 4 m/S 745 mmHg 71%
11:00 +25°C° 0.3 mm 4 m/S 744 mmHg 66%
12:00 +26°C° 0.5 mm 4 m/S 744 mmHg 66%
13:00 +26°C° 0.5 mm 4 m/S 744 mmHg 65%
14:00 +26°C° 0.5 mm 5 m/S 744 mmHg 64%
15:00 +26°C° 0.5 mm 5 m/S 743 mmHg 69%
16:00 +25°C° 0.5 mm 4 m/S 743 mmHg 73%
17:00 +25°C° 0.5 mm 4 m/S 743 mmHg 77%
18:00 +22°C° 1.1 mm 4 m/S 742 mmHg 81%
19:00 +21°C° 1.1 mm 4 m/S 742 mmHg 85%
20:00 +19°C° 1.1 mm 3 m/S 742 mmHg 88%
21:00 +19°C° 1.2 mm 3 m/S 742 mmHg 90%
22:00 +18°C° 1.2 mm 3 m/S 742 mmHg 93%
23:00 +18°C° 1.2 mm 3 m/S 742 mmHg 95%

Morgen, 16 Juni, Mittwoch

Zeit Temperatur Niederschläge Wind Luftdruck Luftfeuchtigkeit
00:00 +18°C° 1.5 mm 3 m/S 742 mmHg 95%
01:00 +17°C° 1.5 mm 3 m/S 742 mmHg 96%
02:00 +17°C° 1.5 mm 3 m/S 742 mmHg 96%
03:00 +17°C° 0.6 mm 3 m/S 742 mmHg 97%
04:00 +17°C° 0.6 mm 3 m/S 742 mmHg 97%
05:00 +17°C° 0.6 mm 4 m/S 743 mmHg 97%
06:00 +18°C° 0.3 mm 4 m/S 743 mmHg 94%
07:00 +19°C° 0.3 mm 4 m/S 743 mmHg 92%
08:00 +20°C° 0.3 mm 5 m/S 744 mmHg 89%
09:00 +21°C° 0.1 mm 5 m/S 744 mmHg 84%
10:00 +23°C° 0.1 mm 5 m/S 744 mmHg 79%
11:00 +25°C° 0.1 mm 5 m/S 744 mmHg 74%
12:00 +25°C° 1.4 mm 4 m/S 744 mmHg 74%
13:00 +25°C° 1.4 mm 4 m/S 744 mmHg 74%
14:00 +25°C° 1.4 mm 4 m/S 744 mmHg 73%
15:00 +23°C° 1.1 mm 4 m/S 744 mmHg 77%
16:00 +23°C° 1.1 mm 4 m/S 744 mmHg 80%
17:00 +22°C° 1.1 mm 4 m/S 744 mmHg 84%
18:00 +21°C° 0.2 mm 4 m/S 745 mmHg 87%
19:00 +20°C° 0.2 mm 3 m/S 745 mmHg 90%
20:00 +19°C° 0.2 mm 3 m/S 745 mmHg 92%
21:00 +19°C° 0.1 mm 3 m/S 745 mmHg 93%
22:00 +18°C° 0.1 mm 3 m/S 745 mmHg 94%
23:00 +18°C° 0.1 mm 3 m/S 745 mmHg 94%

übermorgen, 17 Juni, Donnerstag

Zeit Temperatur Niederschläge Wind Luftdruck Luftfeuchtigkeit
00:00 +18°C° 0 mm 3 m/S 745 mmHg 95%
01:00 +18°C° 0 mm 3 m/S 746 mmHg 95%
02:00 +17°C° 0 mm 3 m/S 746 mmHg 96%
03:00 +18°C° 0 mm 3 m/S 746 mmHg 96%
04:00 +18°C° 0 mm 4 m/S 746 mmHg 96%
05:00 +18°C° 0 mm 4 m/S 746 mmHg 96%
06:00 +19°C° 0 mm 4 m/S 747 mmHg 92%
07:00 +20°C° 0 mm 5 m/S 747 mmHg 88%
08:00 +22°C° 0 mm 6 m/S 748 mmHg 84%
09:00 +23°C° 0 mm 6 m/S 748 mmHg 80%
10:00 +24°C° 0 mm 6 m/S 748 mmHg 75%
11:00 +26°C° 0 mm 7 m/S 748 mmHg 70%
12:00 +26°C° 0.1 mm 7 m/S 748 mmHg 71%
13:00 +26°C° 0.1 mm 7 m/S 748 mmHg 71%
14:00 +26°C° 0.1 mm 7 m/S 748 mmHg 71%
15:00 +26°C° 0.1 mm 7 m/S 748 mmHg 73%
16:00 +26°C° 0.1 mm 7 m/S 748 mmHg 74%
17:00 +24°C° 0.1 mm 7 m/S 749 mmHg 76%
18:00 +23°C° 0.1 mm 6 m/S 749 mmHg 80%
19:00 +22°C° 0.1 mm 6 m/S 749 mmHg 83%
20:00 +21°C° 0.1 mm 5 m/S 750 mmHg 86%
21:00 +20°C° 0 mm 5 m/S 750 mmHg 87%
22:00 +19°C° 0 mm 5 m/S 750 mmHg 88%
23:00 +17°C° 0 mm 5 m/S 750 mmHg 89%

18 Juni, Freitag

Zeit Temperatur Niederschläge Wind Luftdruck Luftfeuchtigkeit
00:00 +17°C° 0 mm 4 m/S 750 mmHg 90%
01:00 +17°C° 0 mm 4 m/S 750 mmHg 91%
02:00 +15°C° 0 mm 4 m/S 750 mmHg 92%
03:00 +15°C° 0 mm 4 m/S 750 mmHg 93%
04:00 +15°C° 0 mm 4 m/S 750 mmHg 93%
05:00 +15°C° 0 mm 4 m/S 751 mmHg 93%
06:00 +16°C° 0 mm 5 m/S 751 mmHg 89%
07:00 +19°C° 0 mm 5 m/S 751 mmHg 84%
08:00 +20°C° 0 mm 6 m/S 751 mmHg 79%
09:00 +21°C° 0 mm 6 m/S 751 mmHg 76%
10:00 +22°C° 0 mm 6 m/S 751 mmHg 73%
11:00 +23°C° 0 mm 6 m/S 751 mmHg 70%
12:00 +24°C° 0 mm 6 m/S 751 mmHg 70%
13:00 +24°C° 0 mm 6 m/S 751 mmHg 69%
14:00 +24°C° 0 mm 6 m/S 751 mmHg 68%
15:00 +24°C° 0 mm 6 m/S 751 mmHg 70%
16:00 +24°C° 0 mm 6 m/S 751 mmHg 71%
17:00 +25°C° 0 mm 5 m/S 751 mmHg 72%
18:00 +22°C° 0 mm 5 m/S 751 mmHg 76%
19:00 +21°C° 0 mm 4 m/S 751 mmHg 80%
20:00 +19°C° 0 mm 3 m/S 751 mmHg 85%
21:00 +19°C° 0 mm 3 m/S 752 mmHg 87%
22:00 +18°C° 0 mm 3 m/S 752 mmHg 89%
23:00 +17°C° 0 mm 3 m/S 752 mmHg 91%

19 Juni, Samstag

Zeit Temperatur Niederschläge Wind Luftdruck Luftfeuchtigkeit
00:00 +17°C° 0 mm 3 m/S 752 mmHg 89%
01:00 +18°C° 0 mm 3 m/S 752 mmHg 88%
02:00 +18°C° 0 mm 3 m/S 752 mmHg 86%
03:00 +18°C° 0 mm 3 m/S 752 mmHg 87%
04:00 +17°C° 0 mm 3 m/S 752 mmHg 87%
05:00 +17°C° 0 mm 3 m/S 752 mmHg 87%
06:00 +18°C° 0 mm 3 m/S 752 mmHg 84%
07:00 +19°C° 0 mm 4 m/S 753 mmHg 81%
08:00 +21°C° 0 mm 4 m/S 753 mmHg 77%
09:00 +22°C° 0 mm 4 m/S 753 mmHg 72%
10:00 +23°C° 0 mm 4 m/S 753 mmHg 68%
11:00 +25°C° 0 mm 5 m/S 752 mmHg 63%
12:00 +26°C° 0 mm 5 m/S 752 mmHg 61%
13:00 +26°C° 0 mm 5 m/S 752 mmHg 58%
14:00 +26°C° 0 mm 5 m/S 752 mmHg 56%
15:00 +26°C° 0 mm 4 m/S 752 mmHg 60%
16:00 +26°C° 0 mm 4 m/S 752 mmHg 64%
17:00 +25°C° 0 mm 3 m/S 751 mmHg 67%
18:00 +24°C° 0 mm 3 m/S 751 mmHg 71%
19:00 +21°C° 0 mm 3 m/S 751 mmHg 75%
20:00 +20°C° 0 mm 3 m/S 751 mmHg 78%
21:00 +19°C° 0 mm 2 m/S 751 mmHg 81%
22:00 +18°C° 0 mm 2 m/S 751 mmHg 83%
23:00 +17°C° 0 mm 2 m/S 752 mmHg 85%

20 Juni, Sonntag

Zeit Temperatur Niederschläge Wind Luftdruck Luftfeuchtigkeit
00:00 +17°C° 0 mm 2 m/S 752 mmHg 87%
01:00 +17°C° 0 mm 2 m/S 752 mmHg 89%
02:00 +16°C° 0 mm 2 m/S 752 mmHg 91%
03:00 +16°C° 0 mm 2 m/S 752 mmHg 90%
04:00 +16°C° 0 mm 2 m/S 752 mmHg 90%
05:00 +16°C° 0 mm 2 m/S 752 mmHg 90%
06:00 +18°C° 0 mm 3 m/S 752 mmHg 85%
07:00 +19°C° 0 mm 3 m/S 752 mmHg 80%
08:00 +21°C° 0 mm 3 m/S 752 mmHg 75%
09:00 +22°C° 0 mm 4 m/S 751 mmHg 71%
10:00 +23°C° 0 mm 4 m/S 751 mmHg 66%
11:00 +25°C° 0 mm 4 m/S 751 mmHg 62%
12:00 +26°C° 0 mm 4 m/S 751 mmHg 59%
13:00 +26°C° 0 mm 4 m/S 751 mmHg 57%
14:00 +27°C° 0 mm 4 m/S 750 mmHg 54%
15:00 +27°C° 0 mm 4 m/S 750 mmHg 57%
16:00 +26°C° 0 mm 4 m/S 750 mmHg 61%
17:00 +26°C° 0 mm 3 m/S 750 mmHg 64%
18:00 +25°C° 0 mm 3 m/S 750 mmHg 69%
19:00 +22°C° 0 mm 3 m/S 750 mmHg 75%
20:00 +20°C° 0 mm 3 m/S 750 mmHg 80%
21:00 +19°C° 0 mm 3 m/S 750 mmHg 82%
22:00 +19°C° 0 mm 2 m/S 750 mmHg 85%
23:00 +18°C° 0 mm 2 m/S 749 mmHg 87%
Mehr zeigen

Wir brauchen deine Erlaubnis

Meteoprog und unser Service Anbieter werden persönliche Daten aufbewahren, so wie Cookies, Geräte Bezeichnung oder ähnliche Technologien von deinem Gerät und Prozess, so wie Persönliche Daten Inhalte und Werbungen, genauso wie social Media und den Verkehr zu analysieren.

  • Aufbewahrung und/oder Zugang zu deiner Geräte Informationen.

    Cookies, Geräte Bezeichnung oder andere Informationen, können aufbewahrt oder Zugang zu deinem Gerät erhalten, für den Grund, der oben angegeben wird.

  • Personalisierte Werbung und Inhalte, Messungen, Einblick in das Publikum und Produkt Entwicklung.

    Werbungen und Inhalte können personalisiert werden, basierend auf ein Profil. Mehr Daten können besser personalisierte Werbungen und Inhalte hinzufügen. Werbung und Inhalte können gezeigt und gemessen werden. Einblicke über das Publikum, welche die Werbung gesehen haben und den Inhalt, können abgeleitet werden. So wie Daten können genutzt werden, um es zu verbessern oder die Benutzer Erfahrung zu verbessern das System und die Software.

Wenn du “Ich stimme zu” klickst, erlaubst du uns, die Cookies zu benutzen die Geräte Bezeichnung, den Web oder ähnliche Technologien zu benutzen. Deine Settings, können in deinem Gerät bei deinem Browser geändert werden.

Für den bestimmten Zweck, berechtigten Interessen beruhen darauf, mehr als auf den Inhalt. Du kannst mehr darüber in unseren Privaten und Cookie Politik lesen.